Location: Newark
(50.4348°N, 30.5552°E)
Time: 23:19:33
(UTC+00:00)

Transit 2A Rocket - Pass Details

Date: 28 January 2020
Orbit: 591 x 911 km, 66.7° (Epoch: 20 February)

Event Time Altitude Azimuth Distance (km) Brightness Sun altitude
Exits shadow 02:10:46 24° 82° (E) 1,238 6.6 -33.0°
Drops below altitude 10° 02:13:11 10° 54° (NE) 1,955 7.8 -32.6°
Sets 02:15:41 0° 44° (NE) 2,890 8.7 -32.2°
